Cahokia, IL

2:18 AM CDT on April 30, 2017 (GMT -0500)
Saint Louis Downtown

Weather History for KCPS - December, 2012

Change the Weather History Date:

Monday, December 3, 2012

  Actual Average Record
Temperature  
Mean Temperature 66 °F -  
Max Temperature 72 °F 35 °F 73 °F (1998)
Min Temperature 61 °F 24 °F 13 °F (1942)
Cooling Degree Days 2    
Growing Degree Days 16 (Base 50)    
Moisture  
Dew Point 57 °F    
Average Humidity 74    
Maximum Humidity 90    
Minimum Humidity 55    
Precipitation  
Precipitation 0.00 in - - ()
Sea Level Pressure  
Sea Level Pressure 29.96 in    
Wind  
Wind Speed 8 mph (South)    
Max Wind Speed 20 mph    
Max Gust Speed 32 mph    
Visibility 10 miles    
Events      
Averages and records for this station are not official NWS values.
T = Trace of Precipitation, MM = Missing Value Source: NWS Daily Summary

Daily Weather History Graph

Daily Weather History Graph

Search for Another Location

Airport or City:

Trip Planner

Search our weather history database for the weather conditions in past years. The results will help you decide how hot, cold, wet, or windy it might be!

Date:

Astronomy

Dec. 03, 2012 Rise Set
Actual Time 7:01 AM CST 4:39 PM CST
Civil Twilight 6:32 AM CST 5:08 PM CST
Nautical Twilight 5:59 AM CST 5:41 PM CST
Astronomical Twilight 5:27 AM CST 6:13 PM CST
Moon 9:24 PM CST (12/3) 10:26 AM CST (12/3)
Length of Visible Light 10h 36m
Length of Day
9h 37m
Waning Gibbous, 78% of the Moon is Illuminated
Dec 3
Waning Gibbous
Dec 6
Last Quarter
Dec 13
New
Dec 19
First Quarter
Dec 28
Full

Hourly Weather History & Observations

Time (CST) Temp. Dew Point Humidity Pressure Visibility Wind Dir Wind Speed Gust Speed Precip Events Conditions
12:53 AM 62.1 °F 57.9 °F 86% 30.01 in 10.0 mi South 5.8 mph - N/A   Partly Cloudy
1:53 AM 61.0 °F 57.9 °F 90% 30.02 in 10.0 mi South 4.6 mph - N/A   Mostly Cloudy
2:53 AM 62.1 °F 57.9 °F 86% 30.01 in 10.0 mi SSE 3.5 mph - N/A   Scattered Clouds
3:53 AM 62.1 °F 57.9 °F 86% 30.00 in 10.0 mi South 5.8 mph - N/A   Mostly Cloudy
5:53 AM 63.0 °F 59.0 °F 87% 29.99 in 10.0 mi South 6.9 mph - N/A   Overcast
6:53 AM 62.1 °F 57.9 °F 86% 29.99 in 10.0 mi SSE 9.2 mph - N/A   Partly Cloudy
7:53 AM 62.1 °F 57.9 °F 86% 29.98 in 10.0 mi SSE 8.1 mph - N/A   Clear
8:53 AM 64.0 °F 59.0 °F 84% 29.98 in 10.0 mi SSE 9.2 mph - N/A   Scattered Clouds
9:53 AM 66.9 °F 59.0 °F 76% 29.98 in 10.0 mi SSE 11.5 mph 19.6 mph N/A   Partly Cloudy
10:53 AM 70.0 °F 59.0 °F 68% 29.96 in 10.0 mi South 11.5 mph 24.2 mph N/A   Clear
11:53 AM 70.0 °F 57.0 °F 63% 29.94 in 10.0 mi South 19.6 mph 32.2 mph N/A   Clear
1:53 PM 71.1 °F 55.0 °F 57% 29.88 in 10.0 mi South 15.0 mph 29.9 mph N/A   Clear
2:53 PM 72.0 °F 55.0 °F 55% 29.88 in 10.0 mi South 15.0 mph 26.5 mph N/A   Clear
3:53 PM 70.0 °F 55.0 °F 59% 29.89 in 10.0 mi South 12.7 mph 27.6 mph N/A   Clear
4:53 PM 66.9 °F 55.0 °F 66% 29.91 in 10.0 mi SSE 10.4 mph - N/A   Clear
5:53 PM 66.0 °F 55.0 °F 68% 29.94 in 10.0 mi South 8.1 mph - N/A   Partly Cloudy
6:53 PM 66.0 °F 55.9 °F 70% 29.95 in 10.0 mi South 9.2 mph - N/A   Overcast
7:53 PM 66.0 °F 57.0 °F 73% 29.95 in 10.0 mi South 6.9 mph 16.1 mph N/A   Clear
8:53 PM 66.0 °F 55.0 °F 68% 29.95 in 10.0 mi South 12.7 mph 19.6 mph N/A   Clear
9:53 PM 64.9 °F 54.0 °F 68% 29.95 in 10.0 mi South 8.1 mph - N/A   Clear
10:53 PM 64.0 °F 54.0 °F 70% 29.95 in 10.0 mi South 4.6 mph - N/A   Clear